Regional Weather Roundup
Issued by NWS

Home | Current Version | Previous Version | Graphics & Text | Print | Product List | Glossary Off
Versions: 1 2 3 4 5 6 7 8 9 10 11 12 13 14 15 16 17 18 19 20 21 22 23 24 25 26 27 28 29 30 31 32 33 34 35 36 37 38 39 40 41 42 43 44 45 46 47 48 49 50

000
ASUS43 KDMX 220701
RWRIA

WEATHER ROUNDUP FOR IOWA
NATIONAL WEATHER SERVICE DES MOINES IA
200 AM CDT SUN OCT 22 2017

NOTE: "FAIR" INDICATES FEW OR NO CLOUDS BELOW 12,000 FEET WITH NO
SIGNIFICANT WEATHER AND/OR OBSTRUCTIONS TO VISIBILITY.

* - THESE STATIONS ARE NOT NWS STATIONS...THUS NOT UNDER NWS
QUALITY CONTROL.  THEY ALSO DO NOT REPORT WEATHER SUCH
AS PRECIPITATION OR FOG.

IAZ001>003-012>014-020>022-031>034-043>046-220800-
   NORTHWEST IOWA

CITY           SKY/WX    TMP DP  RH WIND       PRES   REMARKS
CHEROKEE *     CLOUDY    42  41  97 CALM      29.98S
DENISON *      CLOUDY    48  43  81 W3        29.99S
LE MARS *      PTCLDY    43  39  87 CALM      29.99R
ORANGE CITY *  CLOUDY    43  39  87 CALM      29.98R
SHELDON *      PTCLDY    43  37  81 W5        29.96R
SIOUX CITY     CLOUDY    43  39  86 N3        29.99S
SPENCER        CLOUDY    43  39  86 W3        29.96R
STORM LAKE *   CLOUDY    46  41  81 W9        29.97S
$$

IAZ055>058-069>071-079>083-090>094-220800-
   SOUTHWEST IOWA

CITY           SKY/WX    TMP DP  RH WIND       PRES   REMARKS
ATLANTIC *     CLOUDY    50  43  76 NW8       29.96F
AUDUBON *      CLOUDY    48  43  81 NW5       29.97S
CLARINDA *       N/A     52  45  76 N5        29.99S
COUNCIL BLFS * MOCLDY    48  45  87 W5        29.98F
CRESTON *      CLOUDY    50  46  87 NW3       29.98R
HARLAN  *      CLOUDY    48  45  87 CALM      30.00F
LAMONI         LGT RAIN  50  48  93 N7        29.97R
RED OAK *      CLOUDY    52  43  71 NW8       29.98F
SHENANDOAH *   CLOUDY    52  43  71 NW5       29.99S
$$

IAZ047>049-059>061-072>074-084-220800-
   CENTRAL IOWA

CITY           SKY/WX    TMP DP  RH WIND       PRES   REMARKS
AMES           CLOUDY    52  46  80 NW7       29.95R
ANKENY *       CLOUDY    52  46  82 NW7       29.96R
BOONE *        CLOUDY    50  43  76 NW8       29.94R
CHARITON *     LGT RAIN  50  48  93 NW10      29.96R
DES MOINES     CLOUDY    52  46  80 NW8       29.95R
GRINNELL*      RAIN      51  48  91 NW12      29.95R
KNOXVILLE *    LGT RAIN  52  48  87 NW10      29.95R
MARSHALLTOWN   LGT RAIN  51  48  89 NW6       29.94R
NEWTON *       CLOUDY    52  48  87 NW10      29.95R
PELLA *        RAIN      51  50  95 NW8       29.96R
$$

IAZ004>006-015-016-023>025-035-036-220800-
   NORTH CENTRAL IOWA

CITY           SKY/WX    TMP DP  RH WIND       PRES   REMARKS
ALGONA *       CLOUDY    48  45  87 W8        29.94S
CLARION *      CLOUDY    50  48  93 NW7       29.94R
ESTHERVILLE    PTCLDY    45  42  89 W7        29.94R
FORT DODGE *   CLOUDY    49  43  80 W5        29.95R
MASON CITY     CLOUDY    50  43  77 W10       29.94R
FOREST CITY *    N/A     50  43  76 W7        29.92R
WEBSTER CITY * CLOUDY    50  45  81 NW8       29.93R
IOWA FALLS *   CLOUDY    51  46  82 NW7       29.95R
$$

IAZ007>011-017>019-026>030-037>042-050>054-066-220800-
   NORTHEAST IOWA

CITY           SKY/WX    TMP DP  RH WIND       PRES   REMARKS
CEDAR RAPIDS   LGT RAIN  55  53  93 NW15      29.90R
CHARLES CITY * CLOUDY    50  46  87 NW7G13    29.92R
CLINTON *      LGT RAIN  68  58  70 SW7       29.88F
DECORAH *      LGT RAIN  54  50  87 NW6       29.90R
DUBUQUE        CLOUDY    62  59  90 W7        29.88F
MONTICELLO *   CLOUDY    61  61 100 VRB5      29.86F
OELWEIN *      LGT RAIN  52  50  93 NW16      29.91F
WATERLOO       LGT RAIN  51  48  89 NW8       29.92R
$$

IAZ064-065-067-068-078-220800-
   EAST CENTRAL IOWA

CITY           SKY/WX    TMP DP  RH WIND       PRES   REMARKS
DAVENPORT      LGT RAIN  63  58  83 CALM      29.90F
IOWA CITY      LGT RAIN  61  58  90 NW17G25   29.91S
MUSCATINE *    CLOUDY    63  59  88 CALM      29.88S
QUAD CITIES    LGT RAIN  69  58  67 S3        29.86F
$$

IAZ062-063-075>077-085>089-095>099-220800-
   SOUTHEAST IOWA

CITY           SKY/WX    TMP DP  RH WIND       PRES   REMARKS
BURLINGTON     LGT RAIN  63  60  90 NW15      29.87S
FAIRFIELD *    CLOUDY    55  54  94 NW13      29.90R
FORT MADISON * LGT RAIN  63  61  94 NW3       29.88F
KEOKUK *       CLOUDY    64  59  82 W18G25    29.88R
OSKALOOSA *    LGT RAIN  52  51  96 N16       29.92F
OTTUMWA        LGT RAIN  53  52  96 NW10      29.92R
WASHINGTON *   LGT RAIN  57  57 100 NW16      29.89F
$$

ABBREVIATIONS USED IN REMARKS
   TC - TEMPERATURES IN CELSIUS
  WCI - WIND CHILL INDEX
   HX - HEAT INDEX
  VSB - VISIBILITY
$$





USA.gov is the U.S. government's official web portal to all federal, state and local government web resources and services.